Salt Lake City, UT

9:38 PM MDT on August 28, 2016 (GMT -0600)
Salt Lake City International

Weather History for KSLC - January, 2014

Change the Weather History Date:

Saturday, January 18, 2014

  Actual Average Record
Temperature  
Mean Temperature 28 °F 29 °F  
Max Temperature 38 °F 37 °F 56 °F (2000)
Min Temperature 18 °F 22 °F -6 °F (1984)
Degree Days  
Heating Degree Days 37 36  
Month to date heating degree days 615 648  
Since 1 July heating degree days 2906 2942  
Cooling Degree Days 0 0  
Month to date cooling degree days 0 0  
Year to date cooling degree days 0 0  
Moisture  
Dew Point 24 °F    
Average Humidity 78    
Maximum Humidity 96    
Minimum Humidity 59    
Precipitation  
Precipitation 0.00 in 0.04 in 0.72 in (1914)
Month to date precipitation 0.57 0.75  
Year to date precipitation 0.57 0.75  
Snow  
Snow 0.00 in 0.40 in 5.00 in (1964)
Month to date snowfall 8.3 7.7  
Since 1 July snowfall 31.0 29.9  
Snow Depth 1.00 in    
Sea Level Pressure  
Sea Level Pressure 30.42 in    
Wind  
Wind Speed 3 mph (WNW)    
Max Wind Speed 12 mph    
Max Gust Speed 14 mph    
Visibility 4 miles    
Events Fog    
T = Trace of Precipitation, MM = Missing Value Source: NWS Daily Summary

Daily Weather History Graph

Daily Weather History Graph

Search for Another Location

Airport or City:

Trip Planner

Search our weather history database for the weather conditions in past years. The results will help you decide how hot, cold, wet, or windy it might be!

Date:

Astronomy

Jan. 18, 2014 Rise Set
Actual Time 7:48 AM MST 5:28 PM MST
Civil Twilight 7:18 AM MST 5:58 PM MST
Nautical Twilight 6:44 AM MST 6:32 PM MST
Astronomical Twilight 6:12 AM MST 7:04 PM MST
Moon 8:15 PM MST (1/18) 8:49 AM MST (1/18)
Length of Visible Light 10h 40m
Length of Day
9h 40m
Waning Gibbous, 94% of the Moon is Illuminated
Jan 18
Waning Gibbous
Jan 23
Last Quarter
Jan 30
New
Feb 6
First Quarter
Feb 14
Full

Hourly Weather History & Observations

Time (MST) Temp. Windchill Dew Point Humidity Pressure Visibility Wind Dir Wind Speed Gust Speed Precip Events Conditions
12:53 AM 25.0 °F - 21.0 °F 85% 30.40 in 6.0 mi Calm Calm - N/A   Clear
1:53 AM 23.0 °F 15.8 °F 21.0 °F 92% 30.40 in 5.0 mi WSW 5.8 mph - N/A   Clear
2:53 AM 23.0 °F - 19.9 °F 88% 30.42 in 5.0 mi Calm Calm - N/A   Clear
3:53 AM 23.0 °F 17.0 °F 21.0 °F 92% 30.42 in 6.0 mi SW 4.6 mph - N/A   Clear
4:53 AM 23.0 °F - 19.9 °F 88% 30.43 in 6.0 mi Calm Calm - N/A   Clear
5:53 AM 21.0 °F 16.2 °F 18.0 °F 88% 30.45 in 5.0 mi WNW 3.5 mph - N/A   Clear
6:53 AM 19.0 °F 13.9 °F 16.0 °F 88% 30.46 in 6.0 mi NW 3.5 mph - N/A   Clear
7:53 AM 19.0 °F 13.9 °F 17.1 °F 92% 30.48 in 5.0 mi WSW 3.5 mph - N/A   Clear
8:51 AM 23.0 °F - 21.2 °F 93% 30.41 in 3.0 mi Calm Calm - N/A   Partly Cloudy
8:53 AM 24.1 °F - 21.9 °F 91% 30.49 in 3.0 mi Calm Calm - N/A   Partly Cloudy
9:53 AM 28.0 °F - 24.1 °F 85% 30.50 in 3.0 mi Calm Calm - N/A   Partly Cloudy
10:53 AM 33.1 °F 30.0 °F 25.0 °F 72% 30.49 in 5.0 mi NNW 3.5 mph - N/A   Haze
11:53 AM 36.0 °F 33.3 °F 24.1 °F 62% 30.46 in 5.0 mi WNW 3.5 mph - N/A   Haze
12:53 PM 37.0 °F 32.4 °F 25.0 °F 62% 30.43 in 6.0 mi North 5.8 mph - N/A   Haze
1:53 PM 37.0 °F 32.4 °F 26.1 °F 65% 30.41 in 6.0 mi North 5.8 mph - N/A   Haze
2:53 PM 37.9 °F 32.7 °F 25.0 °F 60% 30.41 in 6.0 mi WNW 6.9 mph - N/A   Haze
3:53 PM 36.0 °F 29.6 °F 23.0 °F 59% 30.42 in 6.0 mi WNW 8.1 mph - N/A   Haze
4:53 PM 34.0 °F 29.8 °F 28.9 °F 82% 30.43 in 5.0 mi WNW 4.6 mph - N/A   Haze
5:53 PM 32.0 °F 28.7 °F 28.0 °F 85% 30.44 in 3.0 mi NW 3.5 mph - N/A   Clear
6:46 PM 28.9 °F - 25.0 °F 85% 30.35 in 2.5 mi Calm Calm - N/A   Clear
6:53 PM 30.0 °F - 27.0 °F 88% 30.44 in 2.5 mi Calm Calm - N/A   Clear
7:53 PM 30.0 °F - 27.0 °F 88% 30.43 in 2.5 mi Calm Calm - N/A   Clear
8:53 PM 28.0 °F 21.7 °F 25.0 °F 88% 30.43 in 2.0 mi NNW 5.8 mph - N/A   Clear
9:01 PM 27.0 °F 23.0 °F 26.1 °F 96% 30.35 in 1.8 mi NNW 3.5 mph - N/A   Clear
9:32 PM 28.0 °F 20.0 °F 26.1 °F 92% 30.36 in 1.5 mi NW 8.1 mph - N/A   Clear
9:53 PM 26.1 °F - 24.1 °F 92% 30.43 in 1.2 mi Calm Calm - N/A   Clear
10:01 PM 25.0 °F - 23.0 °F 92% 30.35 in 0.2 mi Calm Calm - N/A Fog Light Freezing Fog
10:23 PM 26.1 °F 20.5 °F 25.0 °F 96% 30.36 in 0.5 mi SW 4.6 mph - N/A Fog Light Freezing Fog
10:28 PM 26.1 °F 20.5 °F 25.0 °F 96% 30.36 in 1.8 mi SW 4.6 mph - N/A   Scattered Clouds
10:32 PM 26.1 °F 21.9 °F 24.1 °F 92% 30.36 in 2.0 mi SSW 3.5 mph - N/A   Scattered Clouds
10:46 PM 25.0 °F - 24.1 °F 96% 30.36 in 1.8 mi Calm Calm - N/A   Clear
10:53 PM 26.1 °F - 24.1 °F 92% 30.42 in 1.8 mi Calm Calm - N/A   Clear
11:20 PM 26.1 °F 21.9 °F 24.1 °F 92% 30.36 in 3.0 mi ESE 3.5 mph - N/A   Partly Cloudy
11:53 PM 26.1 °F 18.4 °F 25.0 °F 96% 30.40 in 3.0 mi SE 6.9 mph - N/A   Partly Cloudy